Wind_Speed
17 17 16 15 15 14 14 14 15 16 15 15 14 15 15 16 16 17 18 19 20 21 21 22 22 22 22 22 22 22 22 22 22 21 20 20 20 21 22 24 27 29 31 33
18 17 16 15 15 14 13 13 14 14 13 13 12 13 13 14 15 16 17 18 19 20 21 21 21 21 22 22 22 22 22 21 21 20 19 19 19 19 20 21 23 26 28 30
18 17 16 15 14 13 12 12 13 12 11 10 11 11 11 12 14 15 16 17 18 19 19 20 21 21 22 22 22 22 21 21 20 19 18 18 17 17 17 18 19 21 24 27
19 16 15 14 13 11 12 11 10 10 9 9 9 9 11 12 13 14 15 16 17 19 19 20 21 22 23 22 22 22 22 21 20 19 17 16 15 15 15 15 16 17 19 21
17 15 14 13 11 11 10 9 8 7 7 7 7 8 10 11 12 14 15 16 17 18 19 20 21 22 23 23 22 22 22 21 20 19 18 16 15 13 12 12 13 14 15 18
16 15 13 12 10 10 9 7 6 5 5 5 6 7 9 10 11 13 14 16 17 18 19 20 21 22 22 23 22 22 22 22 21 20 19 17 16 14 13 11 11 11 12 15
16 14 12 10 10 8 7 5 4 3 3 4 5 6 7 9 11 12 14 15 17 18 20 20 21 21 22 22 23 22 23 23 22 21 20 19 17 15 14 12 11 10 11 12
14 13 11 10 9 7 5 3 2 1 2 3 4 6 7 9 10 12 14 15 17 18 19 20 20 21 22 22 23 23 23 23 23 22 21 20 19 17 15 14 12 10 9 9
14 12 11 9 8 6 4 3 2 1 1 2 4 6 7 9 10 12 13 15 17 18 19 20 21 21 22 22 23 23 23 23 23 23 22 21 20 18 17 15 14 12 10 9
13 11 10 9 7 5 4 3 3 2 1 2 3 5 7 8 10 11 13 15 16 17 18 19 21 21 22 23 23 23 24 24 24 24 23 23 22 21 19 17 16 14 13 11
12 11 10 8 7 6 5 4 4 3 2 2 3 4 6 8 9 11 12 14 15 17 18 19 20 21 22 23 24 23 24 24 24 24 24 24 23 22 21 19 17 16 15 12
11 10 9 8 7 6 6 6 5 4 2 2 3 4 5 7 9 10 12 13 15 16 17 18 19 21 22 23 23 24 24 24 25 25 25 25 25 24 22 21 19 18 17 15
11 10 9 8 7 7 7 6 5 3 2 2 3 4 5 7 9 10 11 12 14 15 16 17 18 20 21 22 23 24 24 24 25 26 25 25 25 25 24 22 21 21 19 17
10 9 9 9 8 8 8 7 5 4 2 2 2 3 5 7 8 9 11 12 13 14 16 17 18 19 20 21 22 23 24 24 25 25 25 25 25 25 25 23 22 22 21 20
10 9 9 9 9 8 7 7 5 4 3 1 1 3 5 6 8 9 10 11 12 13 15 16 17 18 19 20 21 22 23 24 25 25 25 25 25 25 25 24 23 23 22 21
10 9 9 9 9 8 7 6 5 4 2 1 1 2 4 6 7 8 9 11 12 13 14 15 16 17 18 19 20 21 22 23 24 24 24 24 25 26 26 25 24 23 23 23
10 10 10 9 8 7 7 6 5 4 2 1 2 3 4 5 7 8 9 10 11 12 13 14 15 16 18 18 19 20 21 21 22 23 23 23 24 25 25 25 24 24 24 23
10 10 10 9 8 8 7 6 4 4 3 2 3 3 5 6 7 8 9 10 11 12 13 14 15 16 17 18 18 19 20 20 21 22 22 23 23 24 24 24 24 24 23 23
11 10 10 9 9 8 7 6 5 5 4 4 4 5 6 6 7 8 9 11 12 12 13 14 14 15 16 17 18 18 19 19 20 21 21 22 22 23 23 23 23 23 23 23
11 11 10 10 9 9 8 7 7 7 6 6 7 7 7 8 9 10 10 11 12 12 13 14 14 15 16 17 17 18 18 19 19 20 20 21 21 22 22 22 22 22 22 22
12 12 11 11 10 10 9 9 9 9 8 9 9 9 9 10 10 11 11 12 13 13 14 14 15 16 16 17 17 18 18 18 19 19 20 20 20 21 21 21 21 21 21 21
13 13 13 12 12 11 10 11 11 11 11 11 11 11 11 11 12 12 13 13 14 14 15 15 16 17 17 17 17 18 18 19 19 19 19 20 20 20 19 20 20 20 20 19
15 15 15 14 14 13 13 13 13 13 13 13 13 13 13 13 14 14 14 15 15 16 16 17 17 17 18 18 18 18 19 19 19 20 19 19 19 19 19 18 19 19 19 19
17 17 16 16 16 16 15 15 15 15 15 15 15 16 16 16 16 17 17 17 17 18 18 18 18 19 19 19 19 19 19 20 20 20 20 20 19 19 19 18 18 18 18 18
19 18 18 18 18 18 18 18 17 18 18 18 18 18 18 18 19 19 19 19 19 19 19 20 20 20 21 21 21 21 21 21 21 21 21 21 20 20 19 19 18 17 17 17
21 21 21 20 20 20 20 20 20 20 20 20 20 20 20 20 21 21 21 21 21 21 21 22 22 22 23 23 23 23 23 22 22 22 22 22 21 21 20 19 19 18 18 17
Wind_Direction
233 238 244 252 259 268 278 287 294 300 306 310 315 320 325 329 333 336 338 339 339 340 340 340 338 336 334 331 329 327 323 319 316 310 303 296 288 280 273 267 262 258 256 253
230 235 241 250 259 269 278 288 295 299 305 310 317 325 331 336 339 341 342 344 346 345 345 346 346 344 342 339 337 335 332 328 324 318 312 304 296 288 279 271 266 261 257 253
230 236 242 249 259 268 279 290 294 299 306 315 324 332 339 344 345 345 347 349 350 351 351 351 352 352 351 349 346 345 342 339 334 328 321 313 306 297 286 278 271 264 259 255
227 233 240 248 257 270 281 288 292 299 310 321 332 338 344 348 350 352 353 354 355 355 356 357 358 358 357 356 355 354 353 351 347 344 339 331 323 312 299 288 279 269 262 258
226 230 237 246 257 269 279 286 292 302 314 326 339 346 350 354 356 357 359 359 360 0 0 0 0 1 1 1 1 1 0 359 357 355 352 347 340 332 320 304 291 278 268 261
222 228 236 246 256 265 274 283 294 308 322 335 345 350 354 359 1 2 3 4 5 5 4 3 2 3 3 4 6 6 6 6 4 3 1 358 354 349 339 325 308 292 279 269
220 227 236 245 253 260 268 279 299 325 339 346 353 360 3 4 4 5 6 7 7 8 7 6 5 6 6 8 8 9 9 11 11 10 8 6 3 359 354 346 332 314 296 282
221 230 235 240 249 253 251 256 269 313 346 0 9 10 8 8 9 10 11 10 11 11 10 10 10 10 10 11 12 12 13 14 15 14 12 11 9 6 2 358 351 340 324 304
220 229 231 236 241 239 227 213 192 150 46 27 17 15 15 12 14 14 14 13 13 13 13 14 14 14 13 13 14 15 16 16 16 16 15 14 12 10 7 5 0 353 341 326
217 225 229 231 227 220 212 192 171 144 101 50 24 16 13 15 14 14 13 13 14 15 16 17 17 16 17 17 17 17 18 19 19 19 18 17 16 14 12 9 5 0 354 343
216 223 225 222 216 209 197 178 159 141 118 66 27 19 17 15 15 14 14 15 16 18 19 19 18 18 19 20 20 20 21 22 22 22 21 20 18 15 13 12 10 8 4 358
215 217 218 214 206 196 182 168 159 148 122 69 39 31 23 20 19 19 19 19 19 20 20 19 19 20 21 21 22 23 24 24 24 23 23 23 21 20 18 18 17 14 9 5
210 209 208 204 197 187 178 171 166 156 131 84 54 41 30 24 23 22 20 20 19 20 20 19 19 20 21 22 23 24 25 25 25 25 24 24 24 24 24 23 22 20 17 14
204 201 200 197 190 184 180 176 172 164 142 105 62 36 25 19 19 20 19 18 18 18 18 19 18 19 20 21 21 23 23 24 24 24 24 25 24 24 25 25 24 23 22 21
199 196 193 188 187 185 182 180 179 173 160 132 47 15 11 10 12 14 15 15 15 15 15 15 16 16 17 18 18 19 20 22 23 23 23 23 23 24 25 25 25 25 24 23
191 187 185 183 184 184 182 182 183 183 185 200 331 354 358 2 4 5 6 7 8 9 10 10 11 12 13 14 15 15 16 18 20 21 22 22 22 22 24 24 25 24 24 24
188 185 184 184 185 184 184 189 192 196 209 243 299 332 343 348 350 352 354 356 359 1 3 4 5 7 8 10 11 12 13 15 17 18 19 19 20 20 22 23 23 24 25 25
190 189 189 191 194 198 199 200 204 211 228 257 288 313 326 333 339 343 346 348 351 353 355 358 360 1 3 4 6 8 10 11 13 15 16 16 17 18 19 20 21 23 24 24
194 194 196 199 204 207 211 217 224 235 249 266 283 298 309 317 324 330 335 339 342 345 347 350 353 355 357 359 1 2 3 6 8 9 11 13 14 15 16 18 19 20 21 22
204 205 208 211 216 221 226 233 241 251 261 270 280 290 299 306 313 319 324 330 334 337 340 342 344 347 349 351 353 356 357 359 1 3 5 6 8 10 12 14 15 17 18 19
216 218 222 226 231 233 237 242 249 258 268 273 279 285 292 298 304 310 315 319 323 326 330 333 335 337 340 342 344 347 350 352 354 356 358 359 1 3 5 8 11 12 14 16
226 228 231 235 238 242 246 249 254 260 266 272 277 283 288 293 298 302 307 311 315 319 322 324 327 329 331 334 336 339 341 343 345 347 349 351 353 355 357 359 3 6 8 11
235 236 238 241 245 249 251 254 257 262 266 272 277 282 287 291 295 299 302 306 309 313 315 318 320 322 324 327 329 331 333 335 337 339 341 343 345 347 349 351 354 357 360 2
240 242 244 246 249 252 254 257 260 264 268 272 276 281 285 289 293 296 299 302 305 307 309 311 313 315 317 320 322 324 326 328 330 332 334 335 337 339 341 342 344 347 350 353
245 247 249 251 253 255 256 259 262 265 268 272 275 279 283 287 290 294 296 298 301 303 305 306 308 309 311 312 314 316 319 320 322 324 326 328 329 331 333 334 334 336 340 343
248 249 251 254 255 257 259 261 264 267 270 272 275 278 282 285 288 290 293 295 297 299 301 302 303 305 306 307 308 310 312 314 314 315 317 319 321 322 324 325 326 326 328 330
Height
5897 5900 5900 5901 5901 5902 5901 5901 5899 5897 5895 5893 5891 5888 5885 5882 5879 5875 5872 5868 5864 5860 5856 5851 5847 5842 5838 5833 5829 5824 5820 5815 5811 5807 5804 5802 5800 5799 5798 5798 5797 5798 5799 5800
5895 5896 5898 5898 5898 5899 5898 5898 5896 5894 5892 5890 5888 5886 5883 5880 5877 5874 5870 5867 5863 5859 5854 5849 5845 5840 5835 5830 5826 5821 5816 5811 5807 5803 5799 5797 5794 5793 5792 5791 5790 5790 5791 5792
5891 5894 5894 5895 5896 5896 5895 5895 5893 5892 5890 5888 5886 5884 5881 5878 5875 5872 5869 5865 5861 5857 5853 5848 5843 5838 5833 5828 5823 5818 5813 5808 5803 5799 5795 5792 5790 5788 5786 5785 5784 5784 5784 5785
5888 5890 5892 5892 5893 5893 5892 5892 5891 5889 5888 5886 5885 5883 5880 5877 5874 5871 5868 5864 5860 5856 5852 5847 5842 5837 5832 5827 5822 5816 5811 5806 5801 5796 5792 5788 5786 5783 5781 5780 5779 5778 5778 5778
5885 5887 5889 5890 5890 5890 5890 5889 5888 5887 5886 5885 5883 5881 5880 5876 5873 5871 5867 5863 5860 5856 5851 5846 5842 5837 5832 5826 5821 5816 5810 5805 5800 5795 5791 5787 5783 5780 5777 5776 5774 5773 5773 5773
5883 5885 5886 5887 5888 5888 5888 5887 5887 5885 5885 5884 5882 5881 5879 5876 5873 5870 5867 5863 5859 5855 5851 5846 5841 5837 5831 5826 5821 5815 5810 5805 5799 5794 5790 5786 5782 5778 5775 5773 5771 5769 5768 5768
5880 5882 5884 5885 5885 5886 5886 5886 5886 5885 5884 5883 5881 5879 5879 5875 5872 5869 5866 5863 5859 5855 5850 5846 5841 5836 5831 5826 5821 5816 5810 5805 5799 5794 5790 5785 5781 5777 5774 5771 5768 5766 5765 5763
5879 5881 5882 5883 5883 5884 5884 5884 5885 5884 5883 5882 5880 5879 5878 5875 5872 5869 5866 5863 5859 5855 5851 5846 5841 5837 5832 5827 5821 5816 5811 5805 5800 5795 5790 5785 5781 5777 5773 5770 5767 5764 5762 5760
5877 5879 5880 5880 5881 5882 5882 5882 5882 5882 5882 5881 5880 5879 5877 5874 5872 5869 5866 5862 5859 5855 5851 5847 5842 5837 5832 5827 5822 5817 5812 5806 5801 5796 5791 5786 5781 5777 5773 5769 5766 5763 5760 5758
5875 5877 5878 5879 5879 5880 5881 5881 5881 5881 5881 5880 5880 5878 5877 5874 5871 5869 5866 5863 5859 5855 5851 5847 5843 5838 5833 5828 5823 5818 5813 5808 5802 5797 5792 5787 5782 5777 5773 5769 5766 5762 5759 5756
5873 5875 5876 5877 5878 5878 5879 5880 5880 5880 5880 5880 5879 5880 5876 5874 5871 5869 5866 5863 5859 5856 5852 5848 5844 5839 5835 5830 5825 5820 5815 5809 5804 5799 5794 5789 5783 5778 5774 5769 5766 5762 5758 5755
5871 5873 5874 5875 5876 5876 5877 5878 5879 5880 5879 5878 5878 5881 5875 5873 5871 5869 5866 5863 5860 5856 5853 5849 5845 5841 5836 5832 5827 5822 5817 5812 5806 5801 5796 5791 5785 5780 5775 5770 5766 5762 5758 5755
5870 5872 5873 5874 5877 5876 5876 5877 5878 5878 5878 5878 5878 5880 5875 5873 5871 5869 5866 5863 5860 5857 5854 5850 5846 5842 5838 5833 5829 5824 5819 5814 5809 5803 5798 5793 5788 5782 5777 5772 5768 5764 5759 5755
5868 5870 5872 5873 5874 5874 5876 5876 5877 5877 5877 5877 5877 5877 5875 5873 5871 5869 5866 5864 5861 5858 5855 5851 5847 5843 5839 5835 5831 5826 5821 5816 5811 5806 5801 5795 5790 5785 5780 5775 5770 5766 5761 5757
5867 5869 5870 5871 5872 5873 5875 5875 5876 5876 5877 5877 5876 5875 5874 5872 5871 5869 5866 5864 5861 5858 5855 5852 5848 5845 5841 5837 5832 5828 5823 5818 5813 5808 5803 5798 5793 5788 5782 5777 5773 5768 5763 5759
5866 5868 5869 5870 5871 5872 5873 5874 5875 5875 5875 5876 5875 5875 5873 5872 5870 5868 5866 5864 5861 5859 5856 5852 5849 5845 5842 5838 5834 5829 5825 5820 5815 5811 5806 5801 5796 5790 5785 5780 5775 5770 5766 5761
5865 5867 5868 5870 5871 5872 5873 5874 5874 5874 5875 5874 5874 5874 5872 5871 5869 5868 5866 5863 5861 5858 5856 5853 5849 5846 5842 5839 5835 5831 5826 5822 5817 5813 5808 5803 5798 5793 5788 5783 5778 5773 5768 5764
5864 5866 5867 5868 5871 5871 5874 5872 5873 5873 5873 5873 5872 5872 5871 5870 5868 5866 5865 5862 5860 5858 5855 5852 5849 5846 5843 5839 5835 5832 5828 5823 5819 5815 5810 5805 5800 5796 5791 5786 5781 5776 5771 5767
5863 5865 5866 5867 5868 5870 5871 5871 5871 5871 5872 5871 5871 5870 5869 5868 5867 5865 5863 5861 5859 5857 5854 5851 5849 5846 5842 5839 5836 5832 5828 5824 5820 5816 5812 5807 5803 5798 5793 5789 5784 5779 5774 5770
5862 5863 5865 5866 5867 5868 5870 5869 5869 5870 5870 5869 5868 5868 5867 5866 5865 5864 5861 5859 5857 5855 5853 5850 5847 5845 5842 5839 5835 5832 5828 5825 5821 5817 5813 5809 5804 5800 5795 5791 5786 5782 5777 5773
5860 5861 5862 5863 5864 5865 5866 5866 5867 5868 5868 5866 5866 5865 5864 5863 5863 5861 5859 5857 5855 5853 5851 5848 5846 5843 5840 5837 5834 5831 5828 5824 5821 5817 5813 5809 5805 5801 5797 5793 5788 5784 5780 5775
5857 5858 5859 5860 5861 5864 5863 5863 5864 5864 5863 5863 5862 5862 5861 5860 5859 5858 5856 5854 5853 5851 5848 5846 5844 5841 5838 5836 5833 5830 5827 5824 5820 5817 5813 5809 5805 5801 5798 5794 5790 5786 5782 5778
5853 5855 5856 5857 5859 5859 5859 5859 5859 5859 5859 5859 5858 5858 5857 5856 5855 5854 5853 5851 5849 5847 5845 5843 5841 5838 5836 5833 5830 5828 5825 5822 5818 5815 5812 5808 5805 5801 5797 5794 5790 5787 5783 5779
5849 5850 5851 5852 5853 5853 5854 5854 5854 5854 5854 5854 5854 5853 5853 5852 5851 5850 5848 5847 5845 5843 5841 5839 5837 5835 5832 5830 5827 5825 5822 5819 5816 5813 5810 5807 5803 5800 5797 5793 5790 5786 5783 5779
5844 5845 5846 5847 5848 5848 5848 5849 5849 5849 5849 5849 5849 5848 5847 5847 5846 5845 5843 5842 5840 5839 5837 5835 5833 5830 5828 5826 5823 5821 5818 5816 5813 5810 5807 5804 5801 5798 5795 5792 5788 5785 5782 5779
5838 5839 5840 5841 5842 5842 5843 5843 5843 5843 5843 5843 5843 5842 5842 5841 5840 5839 5838 5836 5835 5833 5831 5829 5827 5825 5823 5821 5818 5816 5814 5811 5809 5806 5803 5800 5798 5795 5792 5789 5786 5783 5781 5778